Weather History for Livingston, MT

Change the Weather History Date:

Wednesday, June 12, 2013

  Actual Average Record
Temperature  
Mean Temperature 63 °F 58 °F  
Max Temperature 79 °F 72 °F 91 °F (1979)
Min Temperature 48 °F 43 °F 30 °F (1969)
Degree Days  
Heating Degree Days 2 8  
Month to date heating degree days 110  
Since 1 June heating degree days 110  
Since 1 July heating degree days 7506  
Cooling Degree Days 0 0  
Month to date cooling degree days 0  
Year to date cooling degree days 1  
Since 1 June cooling degree days 0  
Growing Degree Days 13 (Base 50)    
Moisture  
Dew Point 47 °F    
Average Humidity 69    
Maximum Humidity 94    
Minimum Humidity 26    
Precipitation  
Precipitation 0.01 in 0.08 in 1.60 in (2001)
Month to date precipitation 1.14  
Year to date precipitation 7.40  
Sea Level Pressure  
Sea Level Pressure 29.98 in    
Wind  
Wind Speed 8 mph (East)    
Max Wind Speed 56 mph    
Max Gust Speed 76 mph    
Visibility 9 miles    
Events Rain    
T = Trace of Precipitation, MM = Missing Value Source: NWS Daily Summary

Daily Weather History Graph

Daily Weather History Graph

Search for Another Location

Airport:

Trip Planner

Search our weather history database for the weather conditions in past years. The results will help you decide how hot, cold, wet, or windy it might be!

Date:

Astronomy

Jun. 12, 2013 Rise Set
Actual Time 5:31 AM MDT 9:11 PM MDT
Civil Twilight 4:53 AM MDT 9:49 PM MDT
Nautical Twilight 4:02 AM MDT 10:40 PM MDT
Astronomical Twilight 2:54 AM MDT 11:50 PM MDT
Moon 9:23 AM MDT (6/12) 11:38 PM MDT (6/12)
Length of Visible Light 16h 56m
Length of Day
15h 40m
Waxing Crescent, 14% of the Moon is Illuminated
Jun 12
Waxing Crescent
Jun 16
First Quarter
Jun 23
Full
Jun 29
Last Quarter
Jul 8
New

Hourly Weather History & Observations

Time (MDT) Temp. Dew Point Humidity Pressure Visibility Wind Dir Wind Speed Gust Speed Precip Events Conditions
12:53 AM 53.1 °F 50.0 °F 89% 29.97 in 10.0 mi ESE 5.8 mph - N/A   Partly Cloudy
1:53 AM 48.9 °F 46.0 °F 90% 30.03 in 10.0 mi WSW 5.8 mph - N/A   Clear
2:53 AM 48.0 °F 46.0 °F 93% 30.02 in 10.0 mi NW 6.9 mph - N/A   Clear
3:51 AM 48.2 °F 44.6 °F 87% 30.07 in 10.0 mi Calm Calm - N/A   Scattered Clouds
3:53 AM 48.0 °F 45.0 °F 89% 30.01 in 10.0 mi Calm Calm - N/A   Scattered Clouds
4:53 AM 48.9 °F 46.0 °F 90% 29.99 in 10.0 mi NNE 3.5 mph - 0.01 in   Partly Cloudy
5:23 AM 48.2 °F 46.4 °F 93% 30.08 in 10.0 mi Calm Calm - N/A   Mostly Cloudy
5:43 AM 50.0 °F 46.4 °F 87% 30.08 in 10.0 mi Calm Calm - N/A   Overcast
5:53 AM 50.0 °F 46.9 °F 89% 30.01 in 10.0 mi Calm Calm - N/A   Overcast
6:31 AM 50.0 °F 46.4 °F 87% 30.08 in 10.0 mi NNW 4.6 mph - N/A   Overcast
6:53 AM 50.0 °F 46.9 °F 89% 30.03 in 10.0 mi Calm Calm - N/A   Overcast
7:10 AM 50.0 °F 46.4 °F 87% 30.08 in 10.0 mi Calm Calm - N/A   Overcast
7:53 AM 53.1 °F 48.9 °F 86% 30.01 in 10.0 mi ENE 4.6 mph - N/A   Overcast
8:15 AM 53.6 °F 50.0 °F 88% 30.07 in 8.0 mi ENE 8.1 mph - N/A   Overcast
8:53 AM 53.1 °F 50.0 °F 89% 30.04 in 7.0 mi East 6.9 mph - N/A   Overcast
9:53 AM 53.1 °F 51.1 °F 93% 30.03 in 4.0 mi ENE 13.8 mph - 0.00 in   Overcast
10:02 AM 53.6 °F 51.8 °F 94% 30.09 in 1.8 mi East 12.7 mph - N/A   Overcast
10:23 AM 53.6 °F 51.8 °F 94% 30.08 in 3.0 mi ENE 8.1 mph - N/A   Overcast
10:53 AM 55.0 °F 52.0 °F 89% 30.01 in 10.0 mi East 10.4 mph - N/A   Overcast
11:06 AM 55.4 °F 51.8 °F 88% 30.06 in 10.0 mi East 10.4 mph - 0.00 in Rain Light Rain
11:19 AM 57.2 °F 51.8 °F 82% 30.07 in 10.0 mi East 13.8 mph - 0.00 in   Overcast
11:53 AM 55.9 °F 52.0 °F 87% 30.00 in 10.0 mi ESE 11.5 mph - 0.00 in Rain Light Rain
12:53 PM 64.0 °F 54.0 °F 70% 29.96 in 10.0 mi ENE 4.6 mph - 0.00 in   Clear
1:53 PM 70.0 °F 50.0 °F 49% 29.93 in 10.0 mi ENE 5.8 mph - N/A   Clear
2:53 PM 73.0 °F 50.0 °F 44% 29.90 in 10.0 mi East 10.4 mph - N/A   Clear
3:53 PM 73.0 °F 54.0 °F 51% 29.88 in 10.0 mi NE 15.0 mph 24.2 mph N/A   Clear
4:53 PM 78.1 °F 50.0 °F 37% 29.83 in 10.0 mi East 9.2 mph - N/A   Clear
5:39 PM 78.8 °F 41.0 °F 26% 29.92 in 10.0 mi SSW 28.8 mph 38.0 mph N/A   Clear
5:53 PM 77.0 °F 41.0 °F 28% 29.80 in 10.0 mi SW 23.0 mph 39.1 mph N/A   Clear
6:53 PM 75.0 °F 41.0 °F 29% 29.80 in 10.0 mi SSW 28.8 mph 35.7 mph N/A   Clear
7:53 PM 73.9 °F 39.9 °F 29% 29.80 in 10.0 mi SSW 24.2 mph 34.5 mph N/A   Clear
8:53 PM 72.0 °F 39.0 °F 30% 29.83 in 10.0 mi Variable 5.8 mph - N/A   Clear
9:53 PM 69.1 °F 39.9 °F 35% 29.89 in 10.0 mi West 19.6 mph 28.8 mph N/A   Clear
10:15 PM 69.8 °F 41.0 °F 35% 29.96 in 10.0 mi SSW 56.4 mph 76.0 mph N/A   Mostly Cloudy
10:22 PM 66.2 °F 42.8 °F 43% 29.99 in 10.0 mi SSW 38.0 mph 76.0 mph N/A   Mostly Cloudy
10:53 PM 64.9 °F 42.1 °F 43% 29.90 in 10.0 mi WNW 8.1 mph 20.7 mph 0.00 in   Overcast
11:53 PM 66.9 °F 39.9 °F 37% 29.87 in 10.0 mi SW 9.2 mph - N/A   Mostly Cloudy